TimeCDT,TemperatureF,Dew PointF,Humidity,Sea Level PressureIn,VisibilityMPH,Wind Direction,Wind SpeedMPH,Gust SpeedMPH,PrecipitationIn,Events,Conditions,WindDirDegrees,DateUTC
12:13 AM,62.6,51.8,68,29.80,10.0,South,4.6,-,N/A,,Mostly Cloudy,190,2013-06-16 05:13:00
12:33 AM,60.8,51.8,72,29.80,10.0,SSW,3.5,-,N/A,,Scattered Clouds,200,2013-06-16 05:33:00
12:53 AM,60.8,51.8,72,29.80,10.0,Calm,Calm,-,N/A,,Clear,0,2013-06-16 05:53:00
1:13 AM,59.0,50.0,72,29.80,10.0,Calm,Calm,-,N/A,,Clear,0,2013-06-16 06:13:00
1:33 AM,57.2,51.8,82,29.80,10.0,Calm,Calm,-,N/A,,Scattered Clouds,0,2013-06-16 06:33:00
1:53 AM,55.4,48.2,77,29.80,10.0,Calm,Calm,-,N/A,,Scattered Clouds,0,2013-06-16 06:53:00
2:13 AM,53.6,46.4,77,29.80,10.0,Calm,Calm,-,N/A,,Scattered Clouds,0,2013-06-16 07:13:00
2:33 AM,50.0,44.6,82,29.80,10.0,Calm,Calm,-,N/A,,Clear,0,2013-06-16 07:33:00
2:53 AM,48.2,44.6,87,29.80,10.0,SSW,4.6,-,N/A,,Scattered Clouds,210,2013-06-16 07:53:00
3:13 AM,53.6,48.2,82,29.80,10.0,SSW,3.5,-,N/A,,Scattered Clouds,200,2013-06-16 08:13:00
3:33 AM,53.6,48.2,82,29.80,10.0,Calm,Calm,-,N/A,,Clear,0,2013-06-16 08:33:00
3:53 AM,53.6,48.2,82,29.80,10.0,Calm,Calm,-,N/A,,Clear,0,2013-06-16 08:53:00
4:13 AM,50.0,44.6,82,29.80,10.0,Calm,Calm,-,N/A,,Clear,0,2013-06-16 09:13:00
4:33 AM,46.4,42.8,87,29.80,10.0,Calm,Calm,-,N/A,,Clear,0,2013-06-16 09:33:00
4:53 AM,44.6,42.8,93,29.80,10.0,Calm,Calm,-,N/A,,Scattered Clouds,0,2013-06-16 09:53:00
5:13 AM,44.6,42.8,93,29.80,10.0,Calm,Calm,-,N/A,,Scattered Clouds,0,2013-06-16 10:13:00
5:33 AM,44.6,42.8,93,29.81,10.0,Calm,Calm,-,N/A,,Scattered Clouds,0,2013-06-16 10:33:00
5:53 AM,44.6,42.8,93,29.81,10.0,Calm,Calm,-,N/A,,Clear,0,2013-06-16 10:53:00
6:13 AM,44.6,42.8,93,29.82,10.0,Calm,Calm,-,N/A,,Clear,0,2013-06-16 11:13:00
6:33 AM,46.4,42.8,87,29.82,10.0,Calm,Calm,-,N/A,,Clear,0,2013-06-16 11:33:00
6:53 AM,51.8,48.2,88,29.81,10.0,Calm,Calm,-,N/A,,Clear,0,2013-06-16 11:53:00
7:13 AM,55.4,53.6,94,29.82,10.0,Calm,Calm,-,N/A,,Scattered Clouds,0,2013-06-16 12:13:00
7:33 AM,62.6,57.2,82,29.82,10.0,Calm,Calm,-,N/A,,Scattered Clouds,0,2013-06-16 12:33:00
7:53 AM,64.4,57.2,77,29.82,10.0,West,4.6,-,N/A,,Clear,260,2013-06-16 12:53:00
8:13 AM,66.2,57.2,73,29.83,10.0,West,3.5,-,N/A,,Clear,260,2013-06-16 13:13:00
8:33 AM,66.2,53.6,64,29.82,10.0,Calm,Calm,-,N/A,,Clear,0,2013-06-16 13:33:00
8:53 AM,68.0,53.6,60,29.82,10.0,West,6.9,-,N/A,,Clear,280,2013-06-16 13:53:00
9:13 AM,69.8,53.6,56,29.82,10.0,WSW,3.5,-,N/A,,Scattered Clouds,250,2013-06-16 14:13:00
9:33 AM,71.6,53.6,53,29.82,10.0,West,3.5,-,N/A,,Scattered Clouds,270,2013-06-16 14:33:00
9:53 AM,71.6,55.4,57,29.82,10.0,West,3.5,-,N/A,,Clear,280,2013-06-16 14:53:00
10:13 AM,71.6,53.6,53,29.82,10.0,NNW,4.6,-,N/A,,Clear,340,2013-06-16 15:13:00
10:33 AM,73.4,53.6,50,29.82,10.0,WNW,6.9,-,N/A,,Clear,300,2013-06-16 15:33:00
10:53 AM,73.4,50.0,44,29.82,10.0,West,8.1,17.3,N/A,,Scattered Clouds,270,2013-06-16 15:53:00
11:13 AM,75.2,51.8,44,29.82,10.0,West,4.6,-,N/A,,Scattered Clouds,280,2013-06-16 16:13:00
11:33 AM,75.2,50.0,41,29.82,10.0,NNW,10.4,17.3,N/A,,Scattered Clouds,330,2013-06-16 16:33:00
11:53 AM,75.2,48.2,38,29.81,10.0,NW,5.8,-,N/A,Thunderstorm,Scattered Clouds,310,2013-06-16 16:53:00
12:13 PM,71.6,51.8,50,29.81,10.0,NW,8.1,-,N/A,,Mostly Cloudy,310,2013-06-16 17:13:00
12:33 PM,75.2,51.8,44,2.98,10.0,NW,6.9,-,N/A,,Scattered Clouds,310,2013-06-16 17:33:00
12:53 PM,71.6,48.2,43,29.80,10.0,West,8.1,-,N/A,Thunderstorm,Scattered Clouds,260,2013-06-16 17:53:00
1:13 PM,71.6,48.2,43,29.80,10.0,NNW,6.9,-,N/A,Thunderstorm,Mostly Cloudy,330,2013-06-16 18:13:00
1:33 PM,71.6,53.6,53,29.80,10.0,West,4.6,-,N/A,,Scattered Clouds,260,2013-06-16 18:33:00
1:53 PM,75.2,51.8,44,29.79,10.0,NW,5.8,-,N/A,,Clear,310,2013-06-16 18:53:00
2:13 PM,71.6,51.8,50,29.80,7.0,Calm,Calm,-,N/A,,Mostly Cloudy,0,2013-06-16 19:13:00
2:33 PM,64.4,57.2,77,29.82,10.0,Calm,Calm,-,0.16,Rain-Thunderstorm,Light Thunderstorms and Rain,0,2013-06-16 19:33:00
2:53 PM,64.4,59.0,83,29.81,10.0,Calm,Calm,-,0.16,,Scattered Clouds,0,2013-06-16 19:53:00
3:13 PM,64.4,60.8,88,29.82,10.0,Calm,Calm,-,N/A,,Mostly Cloudy,0,2013-06-16 20:13:00
3:33 PM,66.2,62.6,88,29.81,10.0,Calm,Calm,-,0.01,,Scattered Clouds,0,2013-06-16 20:33:00
3:53 PM,68.0,62.6,83,29.81,10.0,NW,3.5,-,0.01,Rain,Light Rain,310,2013-06-16 20:53:00
4:13 PM,68.0,64.4,88,29.81,10.0,Calm,Calm,-,N/A,,Mostly Cloudy,0,2013-06-16 21:13:00
4:33 PM,64.4,59.0,83,29.83,10.0,WNW,5.8,-,N/A,Rain-Thunderstorm,Light Thunderstorms and Rain,300,2013-06-16 21:33:00
4:53 PM,60.8,55.4,82,29.81,10.0,Calm,Calm,-,N/A,Rain-Thunderstorm,Light Thunderstorms and Rain,0,2013-06-16 21:53:00
5:13 PM,60.8,55.4,82,29.84,10.0,Calm,Calm,-,N/A,Rain,Light Rain,0,2013-06-16 22:13:00
5:33 PM,60.8,57.2,88,29.84,10.0,Calm,Calm,-,0.01,Thunderstorm,Thunderstorm,0,2013-06-16 22:33:00
5:52 PM,60.8,59.0,94,29.83,10.0,Calm,Calm,-,0.01,,Mostly Cloudy,0,2013-06-16 22:52:00
6:12 PM,60.8,57.2,88,29.83,10.0,Calm,Calm,-,N/A,Rain,Light Rain,0,2013-06-16 23:12:00
6:33 PM,62.6,60.8,94,29.82,10.0,Calm,Calm,-,N/A,Rain,Light Rain,0,2013-06-16 23:33:00
6:53 PM,64.4,60.8,88,29.82,10.0,Calm,Calm,-,N/A,,Scattered Clouds,0,2013-06-16 23:53:00
7:12 PM,64.4,60.8,88,29.82,10.0,Calm,Calm,-,N/A,,Scattered Clouds,0,2013-06-17 00:12:00
7:32 PM,62.6,60.8,94,29.84,10.0,Calm,Calm,-,N/A,,Scattered Clouds,0,2013-06-17 00:32:00
7:53 PM,60.8,57.2,88,29.84,10.0,Calm,Calm,-,N/A,,Scattered Clouds,0,2013-06-17 00:53:00
8:13 PM,59.0,55.4,88,29.84,10.0,Calm,Calm,-,N/A,,Clear,0,2013-06-17 01:13:00
8:33 PM,59.0,55.4,88,29.84,10.0,Calm,Calm,-,N/A,,Scattered Clouds,0,2013-06-17 01:33:00
8:52 PM,57.2,55.4,94,29.84,10.0,Calm,Calm,-,N/A,,Mostly Cloudy,0,2013-06-17 01:52:00
9:13 PM,57.2,53.6,88,29.84,10.0,Calm,Calm,-,N/A,,Mostly Cloudy,0,2013-06-17 02:13:00
9:33 PM,55.4,53.6,94,29.86,10.0,Calm,Calm,-,N/A,,Mostly Cloudy,0,2013-06-17 02:33:00
9:53 PM,55.4,53.6,94,29.86,10.0,Calm,Calm,-,N/A,,Scattered Clouds,0,2013-06-17 02:53:00
10:13 PM,55.4,53.6,94,29.87,10.0,Calm,Calm,-,N/A,,Mostly Cloudy,0,2013-06-17 03:13:00
10:32 PM,55.4,53.6,94,29.87,7.0,Calm,Calm,-,N/A,,Mostly Cloudy,0,2013-06-17 03:32:00
10:53 PM,53.6,53.6,100,29.87,10.0,Calm,Calm,-,N/A,,Mostly Cloudy,0,2013-06-17 03:53:00
11:13 PM,53.6,51.8,94,29.87,4.0,Calm,Calm,-,N/A,,Overcast,0,2013-06-17 04:13:00
11:33 PM,55.4,53.6,94,29.87,10.0,Calm,Calm,-,N/A,,Overcast,0,2013-06-17 04:33:00
11:53 PM,55.4,53.6,94,29.87,10.0,Calm,Calm,-,N/A,,Mostly Cloudy,0,2013-06-17 04:53:00